Miscellaneous Local Product
Issued by NWS Hastings, NE

Home | Current Version | Previous Version | Graphics & Text | Print | Product List | Glossary On
Versions: 1 2 3 4 5 6 7 8 9 10 11 12 13 14 15 16 17 18 19 20 21 22 23 24 25 26 27 28 29 30 31 32 33 34 35 36 37 38 39 40 41 42 43 44 45 46 47 48 49 50
000
AXUS43 KGID 231302
MISGRI

GID CWA HOURLY WEATHER ROUNDUP
NATIONAL WEATHER SERVICE HASTINGS NE
800 AM CDT THU MAR 23 2017

NOTE: "FAIR" INDICATES FEW OR NO CLOUDS BELOW 12,000 FEET WITH NO
SIGNIFICANT WEATHER AND/OR OBSTRUCTIONS TO VISIBILITY.

...SOUTH CENTRAL NEBRASKA...

CITY           SKY/WX    TMP DP  RH WIND       PRES   REMARKS
GRAND ISLAND   CLOUDY    48  41  76 SE20G30   29.86F
HASTINGS       CLOUDY    48  44  86 SE18G25   29.85F FOG
KEARNEY        CLOUDY    48  43  81 SE22      29.82F
ORD            CLOUDY    47  35  63 S20G32    29.81F
YORK           CLOUDY    48  43  81 S21G26    29.89F
AURORA         CLOUDY    49  40  73 SE22G29   29.87F
LEXINGTON      CLOUDY    46  43  89 SE14      29.78F FOG
HOLDREGE       CLOUDY    47  44  91 SE15      29.80F FOG
HEBRON         CLOUDY    49  43  80 SE17G23   29.91F

...NEBRASKA PANHANDLE...

CITY           SKY/WX    TMP DP  RH WIND       PRES   REMARKS
CHADRON        CLOUDY    38  33  82 CALM      29.66F
ALLIANCE       CLOUDY    37  35  92 S10       29.68F WCI  30
SCOTTSBLUFF    CLOUDY    34  30  85 E8        29.69S WCI  27
SIDNEY         CLOUDY    32  31  96 NW7       29.71R FOG     WCI  26

...WESTERN AND NORTH CENTRAL NEBRASKA...

CITY           SKY/WX    TMP DP  RH WIND       PRES   REMARKS
VALENTINE      CLOUDY    45  35  68 S10       29.74S
AINSWORTH      CLOUDY    44  36  73 S14       29.76S
ONEILL         CLOUDY    46  33  60 S22G28    29.80F
BROKEN BOW     CLOUDY    46  32  58 S16G24    29.78S
IMPERIAL       CLOUDY    41  39  93 SE10      29.70F FOG
NORTH PLATTE   CLOUDY    46  42  86 SE9       29.76S
MCCOOK         FOG       48  48 100 SE13      29.74F VSB 1

...EASTERN NEBRASKA...

CITY           SKY/WX    TMP DP  RH WIND       PRES   REMARKS
NORFOLK        CLOUDY    43  27  53 SE14      29.88F
SO SIOUX CITY  MOCLDY    39  25  57 SE14      29.96F WCI  31
TEKAMAH        MOCLDY    43  24  47 SE14      29.98F
COLUMBUS       CLOUDY    46  30  53 SE14      29.91F
ALBION         CLOUDY    46  29  51 SE17      29.86F
OMAHA EPPLEY   CLOUDY    47  27  45 SE20      29.99F
OFFUTT AFB     CLOUDY    47  29  48 SE16      29.99F
MILLARD        CLOUDY    49  32  52 SE12G20   29.98F
LINCOLN        CLOUDY    50  41  71 S18       29.97S
NEBRASKA CITY  CLOUDY    47  29  49 SE14G20   30.01S
BEATRICE       CLOUDY    50  41  69 SE12G17   29.95F
FALLS CITY     CLOUDY    49  32  52 SE15G22   30.02F

...NORTHERN KANSAS...

CITY           SKY/WX    TMP DP  RH WIND       PRES   REMARKS
GOODLAND       CLEAR     44  44 100 S18       29.72S FOG
HILL CITY      CLOUDY    52  52 100 SE10      29.80F FOG
NORTON         CLOUDY    48  45  87 SE13G20   29.77  FOG
PHILLIPSBURG   CLOUDY    50  50 100 E13       29.82F FOG
HAYS             N/A     55  51  86 S20       29.82F
RUSSELL        CLOUDY    55  49  80 S20       29.82F
CONCORDIA      CLOUDY    51  46  83 SE15      29.91F
SALINA         CLOUDY    57  47  69 SE16      29.90F
TOPEKA         CLOUDY    54  37  52 SE14      30.02F



USA.gov is the U.S. government's official web portal to all federal, state and local government web resources and services.